Location: Newark
(36.0797°N, 3.9744°E)
Time: 20:09:16
(UTC+00:00)

Vanguard 2 - Pass Details

Date: 06 December 2019
Orbit: 553 x 2938 km, 32.9° (Epoch: 28 January)

Event Time Altitude Azimuth Distance (km) Brightness Sun altitude
Exits shadow 00:44:26 25° 99° (E) 4,628 11.4 -69.6°
Drops below altitude 10° 00:50:45 10° 84° (E) 5,647 12.1 -68.6°
Sets 00:55:21 0° 77° (ENE) 6,502 12.6 -67.8°
